Aérodrome :
LOGIN :

S'inscrire | Disclaimer

   EN    FR    IT 

 










Légende :    VFR   VFR Marginal   IFR   IFR Intensif   IFR Très Intensif
Visi : 
Plafond : 
>= 8 km
>= 3000ft
5 à 8 km
1000 à 3000 ft
1500m à 5 km
500 à 1000 ft
800 à 1500m
200 à 500 ft
< 800m
< 200 ft
Symboles :   Orages  Brouillard  Fortes neiges  Fortes précipitations  Vent > 20 kt
SIGMETs :   Divers  Orages  Givrage  Turbulence  Onde Orograph.  Cendres Volcan.







- Altitude de l'aérodrome : 1568 ft


ETSB - Büchel AB

DERNIER METAR :
  • 191020Z 22005KT 9999 BKN011 M02/M04 Q1018 GRN GRN

METARs EXPIRÉS :
  • 190920Z 24003KT 9999 FEW007 BKN011 M02/M05 Q1018 GRN GRN
  • 190820Z 24004KT 9000 BKN011 M03/M05 Q1019 GRN GRN

TAF TAF ETSB
Valide du 19 à 09h jusqu'au 19 à 18h UTC


190820Z 1909/1918 20005KT 7000 NSW BKN012
BECMG 1910/1912 20005KT 8000 NSW SCT010 SCT180 BY ETGL
Pas de NOTAMs connus pour ce terrain.



MET'MAP, la Météo Aéronautique d'un coup d'oeil ! - Copyright ORBIFLY Décembre 2007 - Disclaimer

ORBIFLY MET'MAP TEAM :

Programmation & Développement : Alexandra Zaïnal
Conception & Développement : Baudouin d'Aumeries
Co-Programmation & Développement : Marc-Olivier Méhu
Soutien technique & logistique : Manuel Goepfert

Contact : metmap@orbifly.com




SOURCES & CREDITS :

   NOAA